Time,TemperatureF,DewpointF,PressureIn,WindDirection,WindDirectionDegrees,WindSpeedMPH,WindSpeedGustMPH,Humidity,HourlyPrecipIn,Conditions,Clouds,dailyrainin,SoftwareType,DateUTC
2013-03-06 00:00:00,37.4,27.1,29.69,ENE,68,5.6,8.3,66,0.00,,,0.00,WUHU216HW,2013-03-06 05:00:00,
2013-03-06 00:05:00,36.4,27.9,29.70,South,180,1.8,8.3,71,0.00,,,0.00,WUHU216HW,2013-03-06 05:05:00,
2013-03-06 00:10:00,35.8,28.0,29.70,ENE,68,5.4,7.6,73,0.00,,,0.00,WUHU216HW,2013-03-06 05:10:00,
2013-03-06 00:15:00,34.9,29.0,29.70,ESE,113,7.4,7.4,79,0.00,,,0.00,WUHU216HW,2013-03-06 05:15:00,
2013-03-06 00:20:00,34.4,28.8,29.70,ESE,113,5.1,7.8,80,0.00,,,0.00,WUHU216HW,2013-03-06 05:20:00,
2013-03-06 00:25:00,33.8,28.5,29.70,East,90,4.0,7.8,81,0.00,,,0.00,WUHU216HW,2013-03-06 05:25:00,
2013-03-06 00:30:00,33.5,29.1,29.70,ESE,113,7.2,7.2,84,0.00,,,0.00,WUHU216HW,2013-03-06 05:30:00,
2013-03-06 00:35:00,33.3,29.3,29.70,ESE,113,3.8,7.2,85,0.00,,,0.00,WUHU216HW,2013-03-06 05:35:00,
2013-03-06 00:40:00,32.9,28.6,29.69,SSE,158,1.8,7.2,84,0.00,,,0.00,WUHU216HW,2013-03-06 05:40:00,
2013-03-06 00:45:00,32.9,29.4,29.70,SE,135,2.7,7.6,87,0.00,,,0.00,WUHU216HW,2013-03-06 05:45:00,
2013-03-06 00:50:00,32.8,29.4,29.70,ESE,113,1.6,7.6,87,0.00,,,0.00,WUHU216HW,2013-03-06 05:50:00,
2013-03-06 00:55:00,32.8,29.6,29.70,ESE,113,3.8,6.0,88,0.00,,,0.00,WUHU216HW,2013-03-06 05:55:00,
2013-03-06 01:00:00,32.8,29.6,29.70,ESE,113,5.4,6.0,88,0.00,,,0.00,WUHU216HW,2013-03-06 06:00:00,
2013-03-06 01:05:00,32.8,29.9,29.69,ENE,68,4.0,5.4,89,0.00,,,0.00,WUHU216HW,2013-03-06 06:05:00,
2013-03-06 01:10:00,32.6,29.4,29.70,ESE,113,2.5,4.0,88,0.00,,,0.00,WUHU216HW,2013-03-06 06:10:00,
2013-03-06 01:15:00,32.6,29.7,29.70,SE,135,4.0,4.0,89,0.00,,,0.00,WUHU216HW,2013-03-06 06:15:00,
2013-03-06 01:20:00,32.6,29.7,29.70,ESE,113,4.7,4.7,89,0.00,,,0.00,WUHU216HW,2013-03-06 06:20:00,
2013-03-06 01:25:00,32.4,29.9,29.70,ESE,113,5.1,5.6,90,0.00,,,0.00,WUHU216HW,2013-03-06 06:25:00,
2013-03-06 01:30:00,32.4,29.5,29.70,East,90,2.5,5.6,89,0.00,,,0.00,WUHU216HW,2013-03-06 06:30:00,
2013-03-06 01:35:00,32.2,29.7,29.70,SE,135,2.0,4.7,90,0.00,,,0.00,WUHU216HW,2013-03-06 06:35:00,
2013-03-06 01:40:00,32.2,29.7,29.70,East,90,2.5,4.0,90,0.00,,,0.00,WUHU216HW,2013-03-06 06:40:00,
2013-03-06 01:45:00,32.2,29.7,29.70,ESE,113,3.8,4.0,90,0.00,,,0.00,WUHU216HW,2013-03-06 06:45:00,
2013-03-06 01:50:00,32.2,30.0,29.70,ENE,68,4.0,4.0,91,0.00,,,0.00,WUHU216HW,2013-03-06 06:50:00,
2013-03-06 01:55:00,32.2,30.0,29.71,East,90,2.5,4.0,91,0.00,,,0.00,WUHU216HW,2013-03-06 06:55:00,
2013-03-06 02:00:00,32.2,30.0,29.71,SE,135,1.3,3.4,91,0.00,,,0.00,WUHU216HW,2013-03-06 07:00:00,
2013-03-06 02:05:00,32.0,29.5,29.71,East,90,1.3,3.4,90,0.00,,,0.00,WUHU216HW,2013-03-06 07:05:00,
2013-03-06 02:10:00,32.2,30.0,29.71,ESE,113,2.9,2.9,91,0.00,,,0.00,WUHU216HW,2013-03-06 07:10:00,
2013-03-06 02:15:00,32.2,30.0,29.71,SSE,158,1.8,5.8,91,0.00,,,0.00,WUHU216HW,2013-03-06 07:15:00,
2013-03-06 02:20:00,32.0,29.8,29.71,ESE,113,5.4,5.8,91,0.00,,,0.00,WUHU216HW,2013-03-06 07:20:00,
2013-03-06 02:25:00,32.0,30.1,29.71,ESE,113,4.0,5.4,92,0.00,,,0.00,WUHU216HW,2013-03-06 07:25:00,
2013-03-06 02:30:00,32.0,29.8,29.71,East,90,2.5,5.6,91,0.00,,,0.00,WUHU216HW,2013-03-06 07:30:00,
2013-03-06 02:35:00,32.0,29.8,29.71,East,90,3.4,5.6,91,0.00,,,0.00,WUHU216HW,2013-03-06 07:35:00,
2013-03-06 02:40:00,32.0,29.8,29.71,ESE,113,3.4,5.6,91,0.00,,,0.00,WUHU216HW,2013-03-06 07:40:00,
2013-03-06 02:45:00,32.0,29.8,29.71,East,90,2.9,4.0,91,0.00,,,0.00,WUHU216HW,2013-03-06 07:45:00,
2013-03-06 02:50:00,32.0,29.8,29.71,ESE,113,1.8,4.0,91,0.00,,,0.00,WUHU216HW,2013-03-06 07:50:00,
2013-03-06 02:55:00,31.9,29.6,29.71,ESE,113,2.2,4.0,91,0.00,,,0.00,WUHU216HW,2013-03-06 07:55:00,
2013-03-06 03:00:00,31.9,29.6,29.71,East,90,1.3,5.1,91,0.00,,,0.00,WUHU216HW,2013-03-06 08:00:00,
2013-03-06 03:05:00,31.9,29.6,29.72,ESE,113,1.3,5.1,91,0.00,,,0.00,WUHU216HW,2013-03-06 08:05:00,
2013-03-06 03:10:00,31.9,29.6,29.72,SE,135,2.5,4.0,91,0.00,,,0.00,WUHU216HW,2013-03-06 08:10:00,
2013-03-06 03:15:00,31.9,29.6,29.72,East,90,1.8,4.0,91,0.00,,,0.00,WUHU216HW,2013-03-06 08:15:00,
2013-03-06 03:20:00,31.9,29.6,29.72,SE,135,3.1,4.0,91,0.00,,,0.00,WUHU216HW,2013-03-06 08:20:00,
2013-03-06 03:25:00,31.7,29.4,29.73,ESE,113,3.4,4.0,91,0.00,,,0.00,WUHU216HW,2013-03-06 08:25:00,
2013-03-06 03:30:00,31.7,29.7,29.73,ESE,113,2.0,3.6,92,0.00,,,0.00,WUHU216HW,2013-03-06 08:30:00,
2013-03-06 03:35:00,31.7,29.4,29.73,East,90,2.9,2.9,91,0.00,,,0.00,WUHU216HW,2013-03-06 08:35:00,
2013-03-06 03:40:00,31.7,29.7,29.73,ESE,113,1.6,3.6,92,0.00,,,0.00,WUHU216HW,2013-03-06 08:40:00,
2013-03-06 03:45:00,31.7,29.7,29.73,East,90,2.7,3.6,92,0.00,,,0.00,WUHU216HW,2013-03-06 08:45:00,
2013-03-06 03:50:00,31.7,29.7,29.74,ESE,113,2.9,2.9,92,0.00,,,0.00,WUHU216HW,2013-03-06 08:50:00,
2013-03-06 03:55:00,31.7,29.7,29.74,ESE,113,1.8,2.9,92,0.00,,,0.00,WUHU216HW,2013-03-06 08:55:00,
2013-03-06 04:00:00,31.7,29.7,29.75,ENE,68,2.2,3.1,92,0.00,,,0.00,WUHU216HW,2013-03-06 09:00:00,
2013-03-06 04:05:00,31.7,29.7,29.75,East,90,0.7,3.1,92,0.00,,,0.00,WUHU216HW,2013-03-06 09:05:00,
2013-03-06 04:10:00,31.7,29.7,29.75,East,90,1.8,2.0,92,0.00,,,0.00,WUHU216HW,2013-03-06 09:10:00,
2013-03-06 04:15:00,31.7,29.4,29.75,ESE,113,1.6,1.8,91,0.00,,,0.00,WUHU216HW,2013-03-06 09:15:00,
2013-03-06 04:20:00,31.7,29.4,29.76,SE,135,1.1,1.8,91,0.00,,,0.00,WUHU216HW,2013-03-06 09:20:00,
2013-03-06 04:25:00,31.7,29.7,29.76,ESE,113,1.1,1.8,92,0.00,,,0.00,WUHU216HW,2013-03-06 09:25:00,
2013-03-06 04:30:00,31.7,29.4,29.76,ESE,113,2.0,2.0,91,0.00,,,0.00,WUHU216HW,2013-03-06 09:30:00,
2013-03-06 04:35:00,31.7,29.4,29.76,East,90,1.1,2.0,91,0.00,,,0.00,WUHU216HW,2013-03-06 09:35:00,
2013-03-06 04:40:00,31.7,29.4,29.76,ENE,68,1.8,1.8,91,0.00,,,0.00,WUHU216HW,2013-03-06 09:40:00,
2013-03-06 04:45:00,31.7,29.4,29.77,ESE,113,1.3,1.8,91,0.00,,,0.00,WUHU216HW,2013-03-06 09:45:00,
2013-03-06 04:50:00,31.7,29.4,29.77,ESE,113,0.7,1.3,91,0.00,,,0.00,WUHU216HW,2013-03-06 09:50:00,
2013-03-06 04:55:00,31.7,29.4,29.77,ESE,113,1.8,1.8,91,0.00,,,0.00,WUHU216HW,2013-03-06 09:55:00,
2013-03-06 05:00:00,31.7,29.4,29.77,ESE,113,0.4,1.8,91,0.00,,,0.00,WUHU216HW,2013-03-06 10:00:00,
2013-03-06 05:05:00,31.7,29.4,29.78,East,90,1.6,1.6,91,0.00,,,0.00,WUHU216HW,2013-03-06 10:05:00,
2013-03-06 05:10:00,31.7,29.4,29.78,East,90,0.4,1.6,91,0.00,,,0.00,WUHU216HW,2013-03-06 10:10:00,
2013-03-06 05:15:00,31.7,29.4,29.78,ENE,68,0.9,1.3,91,0.00,,,0.00,WUHU216HW,2013-03-06 10:15:00,
2013-03-06 05:20:00,31.5,29.3,29.79,East,90,0.9,1.3,91,0.00,,,0.00,WUHU216HW,2013-03-06 10:20:00,
2013-03-06 05:25:00,31.7,29.4,29.79,ESE,113,0.4,1.3,91,0.00,,,0.00,WUHU216HW,2013-03-06 10:25:00,
2013-03-06 05:30:00,31.7,29.4,29.79,ESE,113,0.7,1.3,91,0.00,,,0.00,WUHU216HW,2013-03-06 10:30:00,
2013-03-06 05:35:00,31.7,29.4,29.79,East,90,0.2,1.3,91,0.00,,,0.00,WUHU216HW,2013-03-06 10:35:00,
2013-03-06 05:40:00,31.7,29.4,29.80,ENE,68,0.2,0.4,91,0.00,,,0.00,WUHU216HW,2013-03-06 10:40:00,
2013-03-06 05:45:00,31.7,29.4,29.80,East,90,0.4,0.4,91,0.00,,,0.00,WUHU216HW,2013-03-06 10:45:00,
2013-03-06 05:50:00,31.7,29.4,29.80,East,90,0.4,0.4,91,0.00,,,0.00,WUHU216HW,2013-03-06 10:50:00,
2013-03-06 05:55:00,31.7,29.4,29.80,ESE,113,0.9,1.1,91,0.00,,,0.00,WUHU216HW,2013-03-06 10:55:00,
2013-03-06 06:00:00,31.7,29.4,29.80,ESE,113,0.2,1.1,91,0.00,,,0.00,WUHU216HW,2013-03-06 11:00:00,
2013-03-06 06:05:00,31.9,29.6,29.80,ESE,113,0.4,1.8,91,0.00,,,0.00,WUHU216HW,2013-03-06 11:05:00,
2013-03-06 06:10:00,31.9,29.6,29.81,ESE,113,0.4,1.8,91,0.00,,,0.00,WUHU216HW,2013-03-06 11:10:00,
2013-03-06 06:15:00,31.9,29.6,29.81,ESE,113,0.4,1.1,91,0.00,,,0.00,WUHU216HW,2013-03-06 11:15:00,
2013-03-06 06:20:00,31.9,29.6,29.81,ESE,113,0.4,0.9,91,0.00,,,0.00,WUHU216HW,2013-03-06 11:20:00,
2013-03-06 06:25:00,32.0,29.8,29.81,East,90,1.6,1.6,91,0.00,,,0.00,WUHU216HW,2013-03-06 11:25:00,
2013-03-06 06:30:00,32.0,29.8,29.81,ESE,113,0.4,1.6,91,0.00,,,0.00,WUHU216HW,2013-03-06 11:30:00,
2013-03-06 06:35:00,32.0,29.8,29.82,SE,135,0.4,2.0,91,0.00,,,0.00,WUHU216HW,2013-03-06 11:35:00,
2013-03-06 06:40:00,31.9,29.6,29.82,ENE,68,2.2,2.2,91,0.00,,,0.00,WUHU216HW,2013-03-06 11:40:00,
2013-03-06 06:45:00,31.9,29.6,29.82,ESE,113,1.6,2.2,91,0.00,,,0.00,WUHU216HW,2013-03-06 11:45:00,
2013-03-06 06:50:00,31.9,29.6,29.82,ESE,113,1.1,2.0,91,0.00,,,0.00,WUHU216HW,2013-03-06 11:50:00,
2013-03-06 06:55:00,31.9,29.6,29.82,ESE,113,1.3,3.6,91,0.00,,,0.00,WUHU216HW,2013-03-06 11:55:00,
2013-03-06 07:00:00,31.9,29.6,29.83,SE,135,1.3,3.6,91,0.00,,,0.00,WUHU216HW,2013-03-06 12:00:00,
2013-03-06 07:05:00,31.9,29.6,29.83,ESE,113,1.1,2.5,91,0.00,,,0.00,WUHU216HW,2013-03-06 12:05:00,
2013-03-06 07:10:00,31.9,29.6,29.84,ESE,113,0.0,1.3,91,0.00,,,0.00,WUHU216HW,2013-03-06 12:10:00,
2013-03-06 07:15:00,32.0,29.8,29.84,North,0,0.0,0.9,91,0.00,,,0.00,WUHU216HW,2013-03-06 12:15:00,
2013-03-06 07:20:00,32.0,29.8,29.84,ESE,113,0.4,0.4,91,0.00,,,0.00,WUHU216HW,2013-03-06 12:20:00,
2013-03-06 07:25:00,32.0,30.1,29.84,ESE,113,0.2,0.4,92,0.00,,,0.00,WUHU216HW,2013-03-06 12:25:00,
2013-03-06 07:30:00,32.0,29.8,29.85,East,90,0.0,0.4,91,0.00,,,0.00,WUHU216HW,2013-03-06 12:30:00,
2013-03-06 07:35:00,32.0,30.1,29.85,North,0,0.0,0.0,92,0.00,,,0.00,WUHU216HW,2013-03-06 12:35:00,
2013-03-06 07:40:00,32.2,30.2,29.85,North,0,0.0,0.0,92,0.00,,,0.00,WUHU216HW,2013-03-06 12:40:00,
2013-03-06 07:45:00,32.2,30.2,29.86,North,0,0.0,0.0,92,0.00,,,0.00,WUHU216HW,2013-03-06 12:45:00,
2013-03-06 07:50:00,32.4,30.3,29.86,North,0,0.0,0.0,92,0.00,,,0.00,WUHU216HW,2013-03-06 12:50:00,
2013-03-06 07:55:00,32.2,30.2,29.86,North,0,0.0,0.0,92,0.00,,,0.00,WUHU216HW,2013-03-06 12:55:00,
2013-03-06 08:00:00,32.2,30.2,29.86,North,0,0.0,0.0,92,0.00,,,0.00,WUHU216HW,2013-03-06 13:00:00,
2013-03-06 08:05:00,32.2,30.2,29.87,North,0,0.0,0.0,92,0.00,,,0.00,WUHU216HW,2013-03-06 13:05:00,
2013-03-06 08:10:00,32.4,30.3,29.87,North,0,0.0,0.0,92,0.00,,,0.00,WUHU216HW,2013-03-06 13:10:00,
2013-03-06 08:15:00,32.4,30.3,29.87,North,0,0.0,0.0,92,0.00,,,0.00,WUHU216HW,2013-03-06 13:15:00,
2013-03-06 08:20:00,32.2,30.2,29.88,North,0,0.0,0.0,92,0.00,,,0.00,WUHU216HW,2013-03-06 13:20:00,
2013-03-06 08:25:00,32.4,30.3,29.88,North,0,0.0,0.0,92,0.00,,,0.00,WUHU216HW,2013-03-06 13:25:00,
2013-03-06 08:30:00,32.4,30.3,29.88,North,0,0.0,0.0,92,0.00,,,0.00,WUHU216HW,2013-03-06 13:30:00,
2013-03-06 08:35:00,32.4,30.3,29.89,North,0,0.0,0.0,92,0.00,,,0.00,WUHU216HW,2013-03-06 13:35:00,
2013-03-06 08:40:00,32.6,30.5,29.89,North,0,0.0,0.0,92,0.00,,,0.00,WUHU216HW,2013-03-06 13:40:00,
2013-03-06 08:45:00,32.4,30.3,29.89,North,0,0.0,0.0,92,0.00,,,0.00,WUHU216HW,2013-03-06 13:45:00,
2013-03-06 08:50:00,32.6,30.5,29.89,NE,45,0.0,0.0,92,0.00,,,0.00,WUHU216HW,2013-03-06 13:50:00,
2013-03-06 08:55:00,32.6,30.5,29.89,NE,45,0.0,0.2,92,0.00,,,0.00,WUHU216HW,2013-03-06 13:55:00,
2013-03-06 09:00:00,32.8,30.7,29.90,NE,45,0.0,0.2,92,0.00,,,0.00,WUHU216HW,2013-03-06 14:00:00,
2013-03-06 09:05:00,32.6,30.5,29.90,NE,45,0.0,1.1,92,0.00,,,0.00,WUHU216HW,2013-03-06 14:05:00,
2013-03-06 09:10:00,32.6,30.5,29.90,NE,45,0.0,1.1,92,0.00,,,0.00,WUHU216HW,2013-03-06 14:10:00,
2013-03-06 09:15:00,32.6,30.5,29.90,North,0,0.0,1.1,92,0.00,,,0.00,WUHU216HW,2013-03-06 14:15:00,
2013-03-06 09:20:00,32.8,30.7,29.91,NE,45,0.4,0.4,92,0.00,,,0.00,WUHU216HW,2013-03-06 14:20:00,
2013-03-06 09:25:00,32.8,30.7,29.91,North,0,0.0,0.4,92,0.00,,,0.00,WUHU216HW,2013-03-06 14:25:00,
2013-03-06 09:30:00,32.8,30.7,29.91,North,0,0.0,0.4,92,0.00,,,0.00,WUHU216HW,2013-03-06 14:30:00,
2013-03-06 09:35:00,33.1,31.1,29.91,North,0,0.0,0.0,92,0.00,,,0.00,WUHU216HW,2013-03-06 14:35:00,
2013-03-06 09:40:00,32.9,30.6,29.91,North,0,0.0,0.0,91,0.00,,,0.00,WUHU216HW,2013-03-06 14:40:00,
2013-03-06 09:45:00,32.9,30.3,29.92,North,0,0.0,0.0,90,0.00,,,0.00,WUHU216HW,2013-03-06 14:45:00,
2013-03-06 09:50:00,32.9,30.3,29.92,North,0,0.0,0.0,90,0.00,,,0.00,WUHU216HW,2013-03-06 14:50:00,
2013-03-06 09:55:00,32.8,30.2,29.92,North,0,0.0,0.0,90,0.00,,,0.00,WUHU216HW,2013-03-06 14:55:00,
2013-03-06 10:00:00,32.9,30.3,29.93,North,0,0.0,0.0,90,0.00,,,0.00,WUHU216HW,2013-03-06 15:00:00,
2013-03-06 10:05:00,33.1,30.5,29.93,North,0,0.0,0.0,90,0.00,,,0.00,WUHU216HW,2013-03-06 15:05:00,
2013-03-06 10:10:00,33.3,30.7,29.93,North,0,0.0,0.0,90,0.00,,,0.00,WUHU216HW,2013-03-06 15:10:00,
2013-03-06 10:15:00,33.3,30.3,29.93,North,0,0.0,0.0,89,0.00,,,0.00,WUHU216HW,2013-03-06 15:15:00,
2013-03-06 10:20:00,33.5,30.5,29.94,North,0,0.0,0.0,89,0.00,,,0.00,WUHU216HW,2013-03-06 15:20:00,
2013-03-06 10:25:00,33.8,30.9,29.94,North,0,0.0,0.0,89,0.00,,,0.00,WUHU216HW,2013-03-06 15:25:00,
2013-03-06 10:30:00,34.2,31.2,29.94,North,0,0.0,0.0,89,0.00,,,0.00,WUHU216HW,2013-03-06 15:30:00,
2013-03-06 10:35:00,35.1,32.1,29.94,North,0,0.0,0.0,89,0.00,,,0.00,WUHU216HW,2013-03-06 15:35:00,
2013-03-06 10:40:00,35.3,31.4,29.94,ENE,68,0.0,0.0,86,0.00,,,0.00,WUHU216HW,2013-03-06 15:40:00,
2013-03-06 10:45:00,35.1,31.0,29.94,North,0,0.0,0.0,85,0.00,,,0.00,WUHU216HW,2013-03-06 15:45:00,
2013-03-06 10:50:00,35.3,31.4,29.94,North,0,0.0,0.0,86,0.00,,,0.00,WUHU216HW,2013-03-06 15:50:00,
2013-03-06 10:55:00,35.8,31.4,29.94,North,0,0.0,0.0,84,0.00,,,0.00,WUHU216HW,2013-03-06 15:55:00,
2013-03-06 11:00:00,36.4,32.0,29.94,North,0,0.0,0.0,84,0.01,,,0.00,WUHU216HW,2013-03-06 16:00:00,
2013-03-06 11:05:00,37.1,32.4,29.94,North,0,0.0,0.0,83,0.01,,,0.00,WUHU216HW,2013-03-06 16:05:00,
2013-03-06 11:10:00,36.9,31.3,29.94,North,0,0.0,0.0,80,0.01,,,0.00,WUHU216HW,2013-03-06 16:10:00,
2013-03-06 11:15:00,37.8,32.8,29.95,North,0,0.0,0.0,82,0.01,,,0.00,WUHU216HW,2013-03-06 16:15:00,
2013-03-06 11:20:00,38.2,32.9,29.95,North,0,0.0,0.0,81,0.01,,,0.00,WUHU216HW,2013-03-06 16:20:00,
2013-03-06 11:25:00,38.3,32.8,29.95,North,0,0.0,0.0,80,0.02,,,0.02,WUHU216HW,2013-03-06 16:25:00,
2013-03-06 11:30:00,38.3,32.1,29.95,North,0,0.0,0.0,78,0.02,,,0.02,WUHU216HW,2013-03-06 16:30:00,
2013-03-06 11:35:00,38.5,32.6,29.96,North,0,0.0,0.0,79,0.02,,,0.02,WUHU216HW,2013-03-06 16:35:00,
2013-03-06 11:40:00,38.3,31.8,29.96,North,0,0.0,0.0,77,0.03,,,0.02,WUHU216HW,2013-03-06 16:40:00,
2013-03-06 11:45:00,38.0,31.4,29.96,North,0,0.0,0.0,77,0.03,,,0.02,WUHU216HW,2013-03-06 16:45:00,
2013-03-06 11:50:00,37.8,31.2,29.96,North,0,0.0,0.0,77,0.04,,,0.04,WUHU216HW,2013-03-06 16:50:00,
2013-03-06 11:55:00,38.0,31.4,29.96,North,0,0.0,0.0,77,0.05,,,0.05,WUHU216HW,2013-03-06 16:55:00,
2013-03-06 12:00:00,38.5,32.3,29.96,North,0,0.0,0.0,78,0.05,,,0.06,WUHU216HW,2013-03-06 17:00:00,
2013-03-06 12:05:00,39.1,32.1,29.96,North,0,0.0,0.0,76,0.06,,,0.06,WUHU216HW,2013-03-06 17:05:00,
2013-03-06 12:10:00,39.4,32.1,29.96,North,0,0.0,0.0,75,0.07,,,0.08,WUHU216HW,2013-03-06 17:10:00,
2013-03-06 12:15:00,40.1,32.5,29.96,North,0,0.0,0.0,74,0.09,,,0.09,WUHU216HW,2013-03-06 17:15:00,
2013-03-06 12:20:00,39.6,32.0,29.96,North,0,0.0,0.0,74,0.09,,,0.11,WUHU216HW,2013-03-06 17:20:00,
2013-03-06 12:25:00,39.6,32.0,29.96,North,0,0.0,0.0,74,0.10,,,0.11,WUHU216HW,2013-03-06 17:25:00,
2013-03-06 12:30:00,40.0,31.6,29.96,North,0,0.0,0.0,72,0.10,,,0.12,WUHU216HW,2013-03-06 17:30:00,
2013-03-06 12:35:00,40.3,32.7,29.96,North,0,0.0,0.0,74,0.11,,,0.13,WUHU216HW,2013-03-06 17:35:00,
2013-03-06 12:40:00,40.7,31.7,29.96,North,0,0.0,0.0,70,0.11,,,0.14,WUHU216HW,2013-03-06 17:40:00,
2013-03-06 12:45:00,40.0,31.3,29.96,North,0,0.0,0.0,71,0.11,,,0.14,WUHU216HW,2013-03-06 17:45:00,
2013-03-06 12:50:00,40.0,31.0,29.97,North,0,0.0,0.0,70,0.12,,,0.16,WUHU216HW,2013-03-06 17:50:00,
2013-03-06 12:55:00,40.0,30.6,29.97,North,0,0.0,0.0,69,0.11,,,0.16,WUHU216HW,2013-03-06 17:55:00,
2013-03-06 13:00:00,40.3,30.2,29.97,North,0,0.0,0.0,67,0.11,,,0.17,WUHU216HW,2013-03-06 18:00:00,
2013-03-06 13:05:00,40.7,31.0,29.97,North,0,0.0,0.0,68,0.10,,,0.17,WUHU216HW,2013-03-06 18:05:00,
2013-03-06 13:10:00,40.9,30.3,29.97,North,0,0.0,0.0,66,0.09,,,0.18,WUHU216HW,2013-03-06 18:10:00,
2013-03-06 13:15:00,41.4,31.2,29.97,North,0,0.0,0.0,67,0.08,,,0.18,WUHU216HW,2013-03-06 18:15:00,
2013-03-06 13:20:00,41.4,31.2,29.97,North,0,0.0,0.0,67,0.08,,,0.19,WUHU216HW,2013-03-06 18:20:00,
2013-03-06 13:25:00,41.4,31.2,29.97,North,0,0.0,0.0,67,0.08,,,0.19,WUHU216HW,2013-03-06 18:25:00,
2013-03-06 13:30:00,41.0,29.8,29.98,North,0,0.0,0.0,64,0.07,,,0.20,WUHU216HW,2013-03-06 18:30:00,
2013-03-06 13:35:00,40.1,30.0,29.98,North,0,0.0,0.0,67,0.07,,,0.20,WUHU216HW,2013-03-06 18:35:00,
2013-03-06 13:40:00,39.8,29.3,29.98,North,0,0.0,0.0,66,0.07,,,0.21,WUHU216HW,2013-03-06 18:40:00,
2013-03-06 13:45:00,40.0,29.8,29.98,North,0,0.0,0.0,67,0.06,,,0.21,WUHU216HW,2013-03-06 18:45:00,
2013-03-06 13:50:00,40.1,30.0,29.98,North,0,0.0,0.0,67,0.05,,,0.21,WUHU216HW,2013-03-06 18:50:00,
2013-03-06 13:55:00,40.5,30.3,29.98,North,0,0.0,0.0,67,0.06,,,0.22,WUHU216HW,2013-03-06 18:55:00,
2013-03-06 14:00:00,40.3,29.1,29.98,North,0,0.0,0.0,64,0.05,,,0.22,WUHU216HW,2013-03-06 19:00:00,
2013-03-06 14:05:00,40.5,30.0,29.98,North,0,0.0,0.0,66,0.04,,,0.22,WUHU216HW,2013-03-06 19:05:00,
2013-03-06 14:10:00,40.5,30.0,29.98,North,0,0.0,0.0,66,0.04,,,0.22,WUHU216HW,2013-03-06 19:10:00,
2013-03-06 14:15:00,40.3,29.8,29.99,North,0,0.0,0.0,66,0.05,,,0.23,WUHU216HW,2013-03-06 19:15:00,
2013-03-06 14:20:00,40.0,29.4,29.98,North,0,0.0,0.0,66,0.04,,,0.23,WUHU216HW,2013-03-06 19:20:00,
2013-03-06 14:25:00,40.0,28.7,29.99,North,0,0.0,0.0,64,0.03,,,0.23,WUHU216HW,2013-03-06 19:25:00,
2013-03-06 14:30:00,40.0,29.4,29.99,North,0,0.0,0.0,66,0.03,,,0.23,WUHU216HW,2013-03-06 19:30:00,
2013-03-06 14:35:00,40.1,29.3,29.99,North,0,0.0,0.0,65,0.04,,,0.24,WUHU216HW,2013-03-06 19:35:00,
2013-03-06 14:40:00,40.3,28.7,29.99,North,0,0.0,0.0,63,0.03,,,0.24,WUHU216HW,2013-03-06 19:40:00,
2013-03-06 14:46:00,40.3,28.7,29.99,North,0,0.0,0.0,63,0.03,,,0.24,WUHU216HW,2013-03-06 19:46:00,
2013-03-06 14:50:00,40.1,28.5,30.00,North,0,0.0,0.0,63,0.02,,,0.24,WUHU216HW,2013-03-06 19:50:00,
2013-03-06 14:55:00,40.0,28.4,30.00,North,0,0.0,0.0,63,0.02,,,0.24,WUHU216HW,2013-03-06 19:55:00,
2013-03-06 15:00:00,39.8,28.2,30.00,North,0,0.0,0.0,63,0.02,,,0.24,WUHU216HW,2013-03-06 20:00:00,
2013-03-06 15:06:00,39.8,28.5,30.00,North,0,0.0,0.0,64,0.02,,,0.24,WUHU216HW,2013-03-06 20:06:00,
2013-03-06 15:10:00,39.8,28.2,30.00,North,0,0.0,0.0,63,0.01,,,0.24,WUHU216HW,2013-03-06 20:10:00,
2013-03-06 15:16:00,39.6,28.0,30.01,North,0,0.0,0.0,63,0.01,,,0.24,WUHU216HW,2013-03-06 20:16:00,
2013-03-06 15:21:00,39.6,28.0,30.01,North,0,0.0,0.0,63,0.01,,,0.24,WUHU216HW,2013-03-06 20:21:00,
2013-03-06 15:26:00,39.6,28.0,30.01,North,0,0.0,0.0,63,0.02,,,0.25,WUHU216HW,2013-03-06 20:26:00,
2013-03-06 15:31:00,39.8,28.5,30.01,North,0,0.0,0.0,64,0.02,,,0.25,WUHU216HW,2013-03-06 20:31:00,
2013-03-06 15:36:00,40.0,28.4,30.02,North,0,0.0,0.0,63,0.01,,,0.25,WUHU216HW,2013-03-06 20:36:00,
2013-03-06 15:41:00,40.0,29.1,30.02,North,0,0.0,0.0,65,0.01,,,0.25,WUHU216HW,2013-03-06 20:41:00,
2013-03-06 15:46:00,40.0,28.7,30.02,North,0,0.0,0.0,64,0.01,,,0.25,WUHU216HW,2013-03-06 20:46:00,
2013-03-06 15:51:00,40.0,28.4,30.02,ESE,113,1.1,2.0,63,0.01,,,0.25,WUHU216HW,2013-03-06 20:51:00,
2013-03-06 15:56:00,40.0,28.4,30.02,ENE,68,0.4,2.0,63,0.01,,,0.25,WUHU216HW,2013-03-06 20:56:00,
2013-03-06 16:01:00,40.0,28.4,30.02,ESE,113,0.2,0.9,63,0.01,,,0.25,WUHU216HW,2013-03-06 21:01:00,
2013-03-06 16:06:00,39.8,28.2,30.02,ESE,113,0.7,0.7,63,0.01,,,0.25,WUHU216HW,2013-03-06 21:06:00,
2013-03-06 16:11:00,40.0,28.4,30.03,ENE,68,0.2,2.2,63,0.01,,,0.25,WUHU216HW,2013-03-06 21:11:00,
2013-03-06 16:16:00,40.0,28.7,30.03,East,90,0.0,2.2,64,0.01,,,0.25,WUHU216HW,2013-03-06 21:16:00,
2013-03-06 16:21:00,40.0,28.4,30.03,North,0,0.4,1.8,63,0.00,,,0.25,WUHU216HW,2013-03-06 21:21:00,
2013-03-06 16:26:00,39.8,28.2,30.03,NW,315,0.4,1.3,63,0.00,,,0.25,WUHU216HW,2013-03-06 21:26:00,
2013-03-06 16:31:00,39.8,28.2,30.03,NE,45,0.0,1.3,63,0.00,,,0.25,WUHU216HW,2013-03-06 21:31:00,
2013-03-06 16:36:00,39.8,28.5,30.04,WSW,248,0.4,0.4,64,0.00,,,0.25,WUHU216HW,2013-03-06 21:36:00,
2013-03-06 16:41:00,39.8,28.5,30.04,WSW,248,0.4,0.4,64,0.00,,,0.25,WUHU216HW,2013-03-06 21:41:00,
2013-03-06 16:46:00,39.6,28.4,30.04,ENE,68,0.0,0.4,64,0.00,,,0.25,WUHU216HW,2013-03-06 21:46:00,
2013-03-06 16:51:00,39.4,28.2,30.04,East,90,0.0,0.2,64,0.00,,,0.25,WUHU216HW,2013-03-06 21:51:00,
2013-03-06 16:56:00,39.2,27.6,30.04,NNW,338,0.0,0.2,63,0.00,,,0.25,WUHU216HW,2013-03-06 21:56:00,
2013-03-06 17:01:00,39.2,27.6,30.04,NW,315,2.0,2.0,63,0.00,,,0.25,WUHU216HW,2013-03-06 22:01:00,
2013-03-06 17:06:00,39.2,28.0,30.05,East,90,0.4,2.0,64,0.00,,,0.25,WUHU216HW,2013-03-06 22:06:00,
2013-03-06 17:11:00,39.2,28.0,30.05,NE,45,0.2,2.0,64,0.00,,,0.25,WUHU216HW,2013-03-06 22:11:00,
2013-03-06 17:16:00,39.1,27.8,30.05,NNE,23,0.0,0.4,64,0.00,,,0.25,WUHU216HW,2013-03-06 22:16:00,
2013-03-06 17:21:00,38.9,28.0,30.05,NNW,338,0.0,0.0,65,0.00,,,0.25,WUHU216HW,2013-03-06 22:21:00,
2013-03-06 17:26:00,38.9,28.0,30.06,NNW,338,0.0,0.0,65,0.00,,,0.25,WUHU216HW,2013-03-06 22:26:00,
2013-03-06 17:31:00,38.9,28.5,30.06,NNW,338,0.0,0.0,66,0.00,,,0.25,WUHU216HW,2013-03-06 22:31:00,
2013-03-06 17:36:00,38.5,28.1,30.06,NW,315,0.0,0.2,66,0.00,,,0.25,WUHU216HW,2013-03-06 22:36:00,
2013-03-06 17:41:00,38.5,28.1,30.06,NNW,338,0.0,0.4,66,0.00,,,0.25,WUHU216HW,2013-03-06 22:41:00,
2013-03-06 17:46:00,38.5,28.1,30.06,NW,315,0.2,0.4,66,0.00,,,0.25,WUHU216HW,2013-03-06 22:46:00,
2013-03-06 17:51:00,38.5,28.1,30.06,NW,315,0.0,0.9,66,0.00,,,0.25,WUHU216HW,2013-03-06 22:51:00,
2013-03-06 17:56:00,38.3,27.9,30.06,NW,315,0.0,0.9,66,0.00,,,0.25,WUHU216HW,2013-03-06 22:56:00,
2013-03-06 18:01:00,38.3,27.9,30.06,SW,225,0.0,0.4,66,0.00,,,0.25,WUHU216HW,2013-03-06 23:01:00,
2013-03-06 18:06:00,38.2,28.2,30.06,WNW,293,0.0,0.4,67,0.00,,,0.25,WUHU216HW,2013-03-06 23:06:00,
2013-03-06 18:11:00,38.2,28.2,30.07,WNW,293,0.0,0.4,67,0.00,,,0.25,WUHU216HW,2013-03-06 23:11:00,
2013-03-06 18:16:00,38.0,28.0,30.07,WNW,293,0.0,0.0,67,0.00,,,0.25,WUHU216HW,2013-03-06 23:16:00,
2013-03-06 18:21:00,37.8,27.8,30.07,WNW,293,0.0,0.0,67,0.00,,,0.25,WUHU216HW,2013-03-06 23:21:00,
2013-03-06 18:26:00,37.8,27.8,30.07,WNW,293,0.0,0.0,67,0.00,,,0.25,WUHU216HW,2013-03-06 23:26:00,
2013-03-06 18:31:00,37.6,28.0,30.07,WNW,293,0.0,0.0,68,0.00,,,0.25,WUHU216HW,2013-03-06 23:31:00,
2013-03-06 18:36:00,37.6,28.0,30.07,WNW,293,0.0,0.0,68,0.00,,,0.25,WUHU216HW,2013-03-06 23:36:00,
2013-03-06 18:41:00,37.4,27.9,30.07,WNW,293,0.0,0.0,68,0.00,,,0.25,WUHU216HW,2013-03-06 23:41:00,
2013-03-06 18:46:00,37.4,27.9,30.07,WNW,293,0.0,0.0,68,0.00,,,0.25,WUHU216HW,2013-03-06 23:46:00,
2013-03-06 18:51:00,37.3,27.7,30.07,WNW,293,0.0,0.0,68,0.00,,,0.25,WUHU216HW,2013-03-06 23:51:00,
2013-03-06 18:56:00,37.1,27.6,30.07,WNW,293,0.0,0.0,68,0.00,,,0.25,WUHU216HW,2013-03-06 23:56:00,
2013-03-06 19:01:00,37.3,27.7,30.07,NW,315,0.0,0.2,68,0.00,,,0.25,WUHU216HW,2013-03-07 00:01:00,
2013-03-06 19:06:00,37.3,27.3,30.08,NW,315,0.4,0.4,67,0.00,,,0.25,WUHU216HW,2013-03-07 00:06:00,
2013-03-06 19:11:00,37.4,27.5,30.08,NW,315,0.0,0.4,67,0.00,,,0.25,WUHU216HW,2013-03-07 00:11:00,
2013-03-06 19:16:00,37.4,27.5,30.08,WNW,293,0.4,0.4,67,0.00,,,0.25,WUHU216HW,2013-03-07 00:16:00,
2013-03-06 19:21:00,37.4,27.5,30.09,NW,315,0.4,0.4,67,0.00,,,0.25,WUHU216HW,2013-03-07 00:21:00,
2013-03-06 19:26:00,37.4,27.5,30.09,WNW,293,0.0,0.4,67,0.00,,,0.25,WUHU216HW,2013-03-07 00:26:00,
2013-03-06 19:31:00,37.3,27.7,30.08,WNW,293,0.0,0.2,68,0.00,,,0.25,WUHU216HW,2013-03-07 00:31:00,
2013-03-06 19:36:00,37.1,27.6,30.09,WNW,293,0.0,0.0,68,0.00,,,0.25,WUHU216HW,2013-03-07 00:36:00,
2013-03-06 19:41:00,37.1,27.6,30.09,WNW,293,0.0,0.7,68,0.00,,,0.25,WUHU216HW,2013-03-07 00:41:00,
2013-03-06 19:46:00,37.1,27.6,30.09,WNW,293,0.2,0.7,68,0.00,,,0.25,WUHU216HW,2013-03-07 00:46:00,
2013-03-06 19:51:00,37.3,27.7,30.09,West,270,0.0,1.1,68,0.00,,,0.25,WUHU216HW,2013-03-07 00:51:00,
2013-03-06 19:56:00,37.3,27.3,30.09,NW,315,0.4,1.1,67,0.00,,,0.25,WUHU216HW,2013-03-07 00:56:00,
2013-03-06 20:01:00,37.3,27.3,30.09,WNW,293,1.1,1.1,67,0.00,,,0.25,WUHU216HW,2013-03-07 01:01:00,
2013-03-06 20:06:00,37.3,27.3,30.10,WNW,293,0.2,1.1,67,0.00,,,0.25,WUHU216HW,2013-03-07 01:06:00,
2013-03-06 20:11:00,37.3,27.3,30.10,NW,315,0.0,0.4,67,0.00,,,0.25,WUHU216HW,2013-03-07 01:11:00,
2013-03-06 20:16:00,37.3,27.3,30.10,WNW,293,0.4,0.7,67,0.00,,,0.25,WUHU216HW,2013-03-07 01:16:00,
2013-03-06 20:21:00,37.3,27.3,30.10,West,270,0.0,1.1,67,0.00,,,0.25,WUHU216HW,2013-03-07 01:21:00,
2013-03-06 20:26:00,37.3,27.3,30.10,NNW,338,0.4,1.1,67,0.00,,,0.25,WUHU216HW,2013-03-07 01:26:00,
2013-03-06 20:31:00,37.3,27.3,30.10,NNW,338,0.2,0.4,67,0.00,,,0.25,WUHU216HW,2013-03-07 01:31:00,
2013-03-06 20:36:00,37.1,27.2,30.11,WNW,293,0.4,0.4,67,0.00,,,0.25,WUHU216HW,2013-03-07 01:36:00,
2013-03-06 20:41:00,37.1,27.2,30.10,WNW,293,0.7,0.7,67,0.00,,,0.25,WUHU216HW,2013-03-07 01:41:00,
2013-03-06 20:46:00,37.1,27.2,30.11,NW,315,0.0,0.7,67,0.00,,,0.25,WUHU216HW,2013-03-07 01:46:00,
2013-03-06 20:51:00,37.1,27.6,30.11,West,270,0.0,1.1,68,0.00,,,0.25,WUHU216HW,2013-03-07 01:51:00,
2013-03-06 20:56:00,37.1,27.2,30.11,NW,315,0.0,1.1,67,0.00,,,0.25,WUHU216HW,2013-03-07 01:56:00,
2013-03-06 21:01:00,37.1,27.2,30.11,West,270,1.8,1.8,67,0.00,,,0.25,WUHU216HW,2013-03-07 02:01:00,
2013-03-06 21:06:00,37.1,27.2,30.11,NW,315,0.0,1.8,67,0.00,,,0.25,WUHU216HW,2013-03-07 02:06:00,
2013-03-06 21:11:00,37.1,27.2,30.11,WNW,293,0.0,1.6,67,0.00,,,0.25,WUHU216HW,2013-03-07 02:11:00,
2013-03-06 21:16:00,37.1,27.2,30.11,West,270,0.2,0.4,67,0.00,,,0.25,WUHU216HW,2013-03-07 02:16:00,
2013-03-06 21:21:00,36.9,27.0,30.11,West,270,0.7,1.1,67,0.00,,,0.25,WUHU216HW,2013-03-07 02:21:00,
2013-03-06 21:26:00,36.9,27.0,30.11,West,270,0.0,1.1,67,0.00,,,0.25,WUHU216HW,2013-03-07 02:26:00,
2013-03-06 21:31:00,36.9,27.0,30.11,WNW,293,0.0,0.9,67,0.00,,,0.25,WUHU216HW,2013-03-07 02:31:00,
2013-03-06 21:36:00,36.9,26.6,30.11,NW,315,0.2,0.4,66,0.00,,,0.25,WUHU216HW,2013-03-07 02:36:00,
2013-03-06 21:41:00,36.9,26.6,30.11,West,270,0.7,0.7,66,0.00,,,0.25,WUHU216HW,2013-03-07 02:41:00,
2013-03-06 21:46:00,36.9,26.6,30.11,NNW,338,0.0,0.7,66,0.00,,,0.25,WUHU216HW,2013-03-07 02:46:00,
2013-03-06 21:51:00,36.9,26.6,30.11,West,270,0.0,0.4,66,0.00,,,0.25,WUHU216HW,2013-03-07 02:51:00,
2013-03-06 21:56:00,36.9,26.6,30.11,WNW,293,0.0,0.4,66,0.00,,,0.25,WUHU216HW,2013-03-07 02:56:00,
2013-03-06 22:01:00,36.9,26.6,30.11,NW,315,0.0,0.4,66,0.00,,,0.25,WUHU216HW,2013-03-07 03:01:00,
2013-03-06 22:06:00,36.9,26.6,30.11,WNW,293,0.0,0.9,66,0.00,,,0.25,WUHU216HW,2013-03-07 03:06:00,
2013-03-06 22:11:00,36.9,26.6,30.11,WNW,293,0.0,0.9,66,0.00,,,0.25,WUHU216HW,2013-03-07 03:11:00,
2013-03-06 22:16:00,36.9,26.6,30.11,WNW,293,0.0,0.0,66,0.00,,,0.25,WUHU216HW,2013-03-07 03:16:00,
2013-03-06 22:21:00,36.7,26.5,30.11,WNW,293,0.0,0.0,66,0.00,,,0.25,WUHU216HW,2013-03-07 03:21:00,
2013-03-06 22:26:00,36.7,26.8,30.11,ENE,68,0.4,0.4,67,0.00,,,0.25,WUHU216HW,2013-03-07 03:26:00,
2013-03-06 22:31:00,36.5,26.7,30.11,ENE,68,0.0,0.4,67,0.00,,,0.25,WUHU216HW,2013-03-07 03:31:00,
2013-03-06 22:36:00,36.4,26.5,30.11,ENE,68,0.0,0.0,67,0.00,,,0.25,WUHU216HW,2013-03-07 03:36:00,
2013-03-06 22:41:00,36.4,26.8,30.11,ENE,68,0.0,0.0,68,0.00,,,0.25,WUHU216HW,2013-03-07 03:41:00,
2013-03-06 22:46:00,36.4,26.8,30.10,ENE,68,0.0,0.0,68,0.00,,,0.25,WUHU216HW,2013-03-07 03:46:00,
2013-03-06 22:51:00,36.4,26.8,30.11,North,0,0.0,0.4,68,0.00,,,0.25,WUHU216HW,2013-03-07 03:51:00,
2013-03-06 22:56:00,36.4,26.8,30.11,East,90,0.2,0.4,68,0.00,,,0.25,WUHU216HW,2013-03-07 03:56:00,
2013-03-06 23:01:00,36.4,27.2,30.11,North,0,0.0,0.4,69,0.00,,,0.25,WUHU216HW,2013-03-07 04:01:00,
2013-03-06 23:06:00,36.4,26.8,30.11,North,0,0.0,0.2,68,0.00,,,0.25,WUHU216HW,2013-03-07 04:06:00,
2013-03-06 23:11:00,36.2,27.4,30.11,WNW,293,0.2,0.7,70,0.00,,,0.25,WUHU216HW,2013-03-07 04:11:00,
2013-03-06 23:16:00,36.0,27.6,30.11,ENE,68,0.2,0.7,71,0.00,,,0.25,WUHU216HW,2013-03-07 04:16:00,
2013-03-06 23:21:00,35.6,27.2,30.11,ENE,68,0.0,0.2,71,0.00,,,0.25,WUHU216HW,2013-03-07 04:21:00,
2013-03-06 23:26:00,35.6,27.2,30.11,West,270,0.2,0.9,71,0.00,,,0.25,WUHU216HW,2013-03-07 04:26:00,
2013-03-06 23:31:00,36.0,27.6,30.11,NW,315,0.0,0.9,71,0.00,,,0.25,WUHU216HW,2013-03-07 04:31:00,
2013-03-06 23:36:00,36.0,27.6,30.11,NW,315,0.0,0.2,71,0.00,,,0.25,WUHU216HW,2013-03-07 04:36:00,
2013-03-06 23:41:00,36.0,27.6,30.11,North,0,0.0,0.2,71,0.00,,,0.25,WUHU216HW,2013-03-07 04:41:00,
2013-03-06 23:46:00,36.0,27.6,30.11,West,270,0.0,0.4,71,0.00,,,0.25,WUHU216HW,2013-03-07 04:46:00,
2013-03-06 23:51:00,36.0,27.2,30.11,NW,315,0.0,0.4,70,0.00,,,0.25,WUHU216HW,2013-03-07 04:51:00,
2013-03-06 23:56:00,36.0,27.6,30.11,NW,315,0.0,0.2,71,0.00,,,0.25,WUHU216HW,2013-03-07 04:56:00,